Regional Weather Roundup
Issued by NWS

Home | Current Version | Previous Version | Text Only | Print | Product List | Glossary On
Versions: 1 2 3 4 5 6 7 8 9 10 11 12 13 14 15 16 17 18 19 20 21 22 23 24 25 26 27 28 29 30 31 32 33 34 35 36 37 38 39 40 41 42 43 44 45 46 47 48 49 50
000
ASCA44 KEWX 160720
RWRMX

LATIN AMERICA AND CARIBBEAN REGIONAL WEATHER ROUNDUP
NATIONAL WEATHER SERVICE AUSTIN/SAN ANTONIO TX
200 AM CDT WED APR 16 2014

NOTE: "FAIR" INDICATED FEW OR NO CLOUDS BELOW 12,000 FEET WITH NO
SIGNIFICANT WEATHER AND/OR OBSTRUCTIONS TO VISIBILITY.

BAJA CALIFORNIA

CITY           SKY/WX    TMP DP  RH WIND       PRES   REMARKS
LA PAZ           N/A    N/A N/A N/A MISG        N/A
TIJUANA        CLEAR     57  52  82 CALM      29.92F

NORTHWESTERN MEXICO

CITY           SKY/WX    TMP DP  RH WIND       PRES   REMARKS

NORTHEASTERN MEXICO

CITY           SKY/WX    TMP DP  RH WIND       PRES   REMARKS
MONTERREY      CLEAR     50  36  57 E12       30.08F WCI  46
SALTILLO       CLEAR     46  39  76 CALM      30.14F
CD. VICTORIA   CLEAR     46  39  76 CALM      30.15F

WESTERN MEXICO

CITY           SKY/WX    TMP DP  RH WIND       PRES   REMARKS
GUADALAJARA    CLEAR     66  46  48 CALM      30.10F
MAZATLAN       MOCLDY    63  57  82 CALM      29.86F
P. VALLARTA    CLEAR     72  66  83 CALM      29.86S
ZACATECAS      CLEAR     48  34  57 CALM      30.19

CENTRAL MEXICO

CITY           SKY/WX    TMP DP  RH WIND       PRES   REMARKS
MEXICO CITY    CLEAR     57  48  72 E3        30.27F
MORELIA        CLEAR     59  43  55 CALM      30.17F
QUERETARO      CLEAR     50  41  71 E8        30.28R WCI  47
S. LUIS POTOSI CLEAR     46  34  61 SE5       30.22  WCI  44
TOLUCA         PTCLDY    50  45  81 SE6       30.35  WCI  48

SOUTHERN MEXICO

CITY           SKY/WX    TMP DP  RH WIND       PRES   REMARKS
ACAPULCO       CLEAR     77  72  83 NW1       29.89S

YUCATAN PENINSULA

CITY           SKY/WX    TMP DP  RH WIND       PRES   REMARKS
CANCUN         PTCLDY    73  72  94 CALM      29.94F
COZUMEL        MOCLDY    72  72 100 CALM      29.94S
MERIDA         MOCLDY    72  72 100 N5        29.98F
TAPACHULA      PTCLDY    79  75  89 E10       29.85S

CENTRAL AMERICA

CITY           SKY/WX    TMP DP  RH WIND       PRES   REMARKS
MANAGUA        MOSUNNY   82  73  74 SE9       29.83S

CARIBBEAN

CITY           SKY/WX    TMP DP  RH WIND       PRES   REMARKS
KINGSTON       PTCLDY    79  72  78 N5        29.92S
SAN JUAN       PTCLDY    79  70  73 CALM      29.95F
SANTO DOMINGO  PTCLDY    73  70  88 NE5       29.92S
ST. CROIX      PTCLDY    75  70  83 N6        29.94F
ST. MAARTEN    PTCLDY    77  72  83 E7        29.94S
ST. THOMAS     CLEAR     75  72  88 E6        29.93F

$$




USA.gov is the U.S. government's official web portal to all federal, state and local government web resources and services.